Home > Weather > Ufa > Past weeks

Flag for Russia Weather for the Past 2 Weeks in Ufa, Russia

Now
23 °F

Overcast.


Feels Like: 12 °F
Forecast: 17 / 26 °F
Wind: 10 mph from Northwest

Location: Ufa

Current Time: Feb 8, 2016 at 6:07:53 AM

Latest Report: Feb 8, 2016 at 5:30 AM


Visibility: N/A

Pressure: 30.15 "Hg

Humidity: 80%

Dew point: 18 °F

Location of UfaLocation

Historic Weather in Ufa — Graph

°F

Ufa Temperature Yesterday

Maximum temperature yesterday: 23 °F (at 9:00 PM)
Minimum temperature yesterday: 10 °F (at 1:30 AM)
Average temperature yesterday: 17 °F

High & Low Weather Summary for the Past Weeks

 TemperatureHumidityPressure
High36 °F (Feb 2, 3:00 PM)100% (Feb 2, 1:30 PM)30.33 "Hg (Feb 2, 1:30 PM)
Low-17 °F (Jan 27, 11:00 PM)58% (Jan 24, 5:00 AM)29.45 "Hg (Feb 4, 7:00 AM)
Average18 °F83%30.00 "Hg
* Reported Jan 24 4:00 AM — Feb 8 4:00 AM, Ufa, Weather by CustomWeather, © 2016

Note: Actual official high and low records may vary slightly from our data, if they occured in-between our weather recording intervals... More about our weather records

Advertising

Ufa Weather History for the Previous 24 Hours

 ConditionsComfort  
Time TempWeatherWind HumidityBarometerVisibility
4:00 AM
Mon, Feb 8
25 °FLight snow. Overcast.10 mph93%30.12 "Hg3 mi
3:30 AM25 °FHeavy snow. Ice fog.10 mph93%30.12 "Hg0 mi
3:00 AM25 °FHeavy snow. Ice fog.6 mph93%30.12 "Hg1 mi
2:30 AM25 °FSleet. Overcast.3 mph93%30.12 "Hg1 mi
2:00 AM25 °FLight snow. Ice fog.6 mph86%30.12 "Hg3 mi
1:30 AM23 °FLight snow. Ice fog.3 mph93%30.12 "Hg3 mi
1:00 AM25 °FLight snow. Ice fog.1 mph86%30.12 "Hg3 mi
12:30 AM23 °FOvercast.1 mph93%30.09 "HgN/A
12:00 AM23 °FOvercast.3 mph93%30.09 "HgN/A
11:30 PM
Sun, Feb 7
23 °FLow clouds.3 mph93%30.09 "HgN/A
11:00 PM23 °FLow clouds.1 mph93%30.09 "HgN/A
10:30 PM23 °FLow clouds.1 mph93%30.09 "HgN/A
10:00 PM23 °FLow clouds.3 mph93%30.07 "HgN/A
9:30 PM23 °FLow clouds.3 mph86%30.07 "HgN/A
9:00 PM23 °FLow clouds.1 mph86%30.07 "HgN/A
8:30 PM21 °FLow clouds.3 mph93%30.07 "HgN/A
8:00 PM21 °FPartly sunny.3 mph93%30.07 "HgN/A
7:30 PM21 °FLow clouds.3 mph93%30.07 "HgN/A
7:00 PM21 °FIce fog.3 mph93%30.07 "Hg2 mi
6:30 PM21 °FIce fog.6 mph93%30.04 "Hg3 mi
6:00 PM21 °FLow clouds.8 mph93%30.04 "HgN/A
5:30 PM21 °FLow clouds.6 mph93%30.04 "HgN/A
5:00 PM21 °FPartly sunny.3 mph93%30.04 "HgN/A
4:30 PM21 °FPartly sunny.3 mph93%30.04 "HgN/A
4:00 PM21 °FPartly sunny.3 mph86%30.04 "HgN/A
3:30 PM19 °FPartly sunny.8 mph93%30.04 "HgN/A
3:00 PM19 °FPartly sunny.3 mph93%30.04 "HgN/A
2:30 PM19 °FPartly sunny.6 mph93%30.01 "HgN/A
2:00 PM19 °FIce fog.6 mph86%30.01 "Hg2 mi
1:30 PM18 °FIce fog.6 mph93%30.01 "Hg2 mi
1:00 PM18 °FIce fog.6 mph86%30.04 "Hg2 mi
12:30 PM16 °FIce fog.6 mph93%30.04 "Hg2 mi
12:00 PM16 °FIce fog.6 mph86%30.01 "Hg2 mi
11:30 AM14 °FIce fog.8 mph92%30.01 "Hg2 mi
11:00 AM14 °FIce fog.6 mph92%30.01 "Hg2 mi
10:30 AM14 °FIce fog.8 mph92%30.01 "Hg2 mi
10:00 AM14 °FIce fog.8 mph92%29.98 "Hg2 mi
9:30 AM14 °FIce fog.10 mph92%29.98 "Hg1 mi
9:00 AM14 °FCold.8 mph92%29.98 "Hg1 mi
8:30 AM14 °FCold.1 mph92%29.98 "Hg1 mi
8:00 AM12 °FIce fog.3 mph92%29.95 "Hg3 mi
7:30 AM14 °FSleet. Overcast.10 mph92%29.95 "Hg0 mi
7:00 AM12 °FPassing clouds.6 mph92%29.95 "HgN/A
6:30 AM14 °FPassing clouds.8 mph85%29.95 "HgN/A
6:00 AM14 °FPassing clouds.6 mph92%29.92 "HgN/A
Weather by CustomWeather, © 2016

See weather overviewHow to use our weather pages